Left ArrowRight Arrow

44.66885, -90.1718

Hourly Observations for May 24, 2024

Temp ( °F °C ) Dew Point ( °F °C ) Humidity (%) Winds ( mph kmh ) Pressure ( in mb ) Visibility ( mi km ) Precip ( " mm )
12:54 am 00:54 Clear 55 12.8 53 11.7 93 93 ESE 3 6 29.87 1012 10 16 0.00 0.00
1:54 am 01:54 Clear 56 13.3 53 11.7 90 90 E 3 6 29.85 1011 10 16 0.00 0.00
2:54 am 02:54 Clear 55 12.8 52 11.1 89 89 ESE 3 6 29.84 1011 10 16 0.00 0.00
3:54 am 03:54 Clear 54 12.2 51 10.6 90 90 ESE 5 7 29.80 1009 10 16 0.00 0.00
4:54 am 04:54 Clear 55 12.8 51 10.6 86 86 SE 7 11 29.79 1009 10 16 0.00 0.00
5:54 am 05:54 Sunny 56 13.3 49 9.4 77 77 ESE 9 15 29.78 1009 10 16 0.00 0.00
6:54 am 06:54 Sunny 56 13.3 52 11.1 87 87 E 15 24 29.77 1008 10 16 0.00 0.00
7:54 am 07:54 Sunny 56 13.3 52 11.1 87 87 ESE 13 20 29.79 1009 10 16 0.00 0.00
8:54 am 08:54 Sunny 57 13.9 51 10.6 80 80 E 16 26 29.75 1007 10 16 0.00 0.00
9:54 am 09:54 Mostly Cloudy with Light Rain 58 14.4 51 10.6 78 78 SE 13 20 29.75 1007 9 14 0.01 0.13
10:22 am 10:22 Mostly Cloudy with Nearby Thunderstorms 57 13.9 52 11.1 83 83 ESE 17 28 29.74 1007 7 11 0.01 0.13
10:54 am 10:54 Partly Cloudy with Light Rain 57 13.9 55 12.8 93 93 SE 26 43 29.62 1003 9 14 0.01 0.25
11:54 am 11:54 Sunny 59 15 54 12.2 83 83 ESE 15 24 29.65 1004 10 16 0.01 0.13
12:24 pm 12:24 Mostly Cloudy 61 16.1 56 13.3 83 83 SSE 17 28 29.67 1005 10 16 0.00 0.00
12:40 pm 12:40 Cloudy 60 15.6 56 13.3 86 86 S 16 26 29.68 1005 10 16 0.00 0.00
12:54 pm 12:54 Cloudy 62 16.7 58 14.4 86 86 SSE 10 17 29.68 1005 10 16 0.00 0.00
1:39 pm 13:39 Mostly Cloudy 66 18.9 59 15 78 78 S 17 28 29.64 1004 10 16 0.00 0.00
1:54 pm 13:54 Partly Cloudy 68 20 60 15.6 76 76 S 23 37 29.67 1005 10 16 0.00 0.00
2:54 pm 14:54 Cloudy 64 17.8 60 15.6 87 87 SSE 7 11 29.66 1004 10 16 0.01 0.13
3:20 pm 15:20 Cloudy with Thunderstorms 64 17.8 59 15 84 84 SSE 9 15 29.62 1003 8 13 0.02 0.51
3:41 pm 15:41 Cloudy with Nearby Thunderstorms 64 17.8 60 15.6 87 87 SSE 6 9 29.62 1003 10 16 0.02 0.51
3:54 pm 15:54 Mostly Cloudy with Light Rain 65 18.3 61 16.1 87 87 SE 3 6 29.64 1004 10 16 0.02 0.51
4:54 pm 16:54 Cloudy 65 18.3 60 15.6 84 84 SSE 7 11 29.62 1003 10 16 0.01 0.13
5:54 pm 17:54 Cloudy 65 18.3 60 15.6 84 84 SE 8 13 29.63 1003 10 16 0.00 0.00
6:54 pm 18:54 Mostly Cloudy 66 18.9 60 15.6 81 81 S 13 20 29.62 1003 10 16 0.00 0.00
7:54 pm 19:54 Sunny 63 17.2 59 15 87 87 S 14 22 29.62 1003 10 16 0.00 0.00
8:54 pm 20:54 Mostly Cloudy 62 16.7 59 15 90 90 S 13 20 29.62 1003 10 16 0.00 0.00
10:01 pm 22:01 Cloudy 61 16.1 52 11.1 72 72 W 16 26 29.66 1004 10 16 0.00 0.00
10:54 pm 22:54 Mostly Cloudy 57 13.9 48 8.9 72 72 W 14 22 29.70 1006 10 16 0.00 0.00
11:54 pm 23:54 Clear 54 12.2 46 7.8 74 74 W 14 22 29.71 1006 10 16 0.00 0.00

Powered by Vaisala Xweather